This demonstration page uses our WeatherBlox Daily Observations layout. Learn more.

Left ArrowRight Arrow

Hourly Observations for May 19, 2015

Temp ( °F °C ) Dew Point ( °F °C ) Humidity (%) Winds ( mph kmh ) Pressure ( in mb ) Visibility ( mi km ) Precip ( " mm )
12:58 am 00:58 Clear 46 8 38 3.1 71 71 N 10 17 30.37 1029 10 16 0.00 0.00
1:58 am 01:58 Clear 44 6.7 36 2.2 73 73 N 8 13 30.37 1028 10 16 0.00 0.00
2:58 am 02:58 Clear 43 5.9 34 1.2 72 72 N 8 13 30.36 1028 10 16 0.00 0.00
3:58 am 03:58 Clear 41 4.9 35 1.5 79 79 N 7 11 30.35 1028 10 16 0.00 0.00
4:58 am 04:58 Mostly Clear 39 4 32 0 75 75 N 9 15 30.35 1028 10 16 0.00 0.00
5:07 am 05:07 Mostly Cloudy 39 4 32 0 75 75 N 9 15 30.39 1029 10 16 0.00 0.00
5:58 am 05:58 Cloudy 40 4.7 34 0.9 77 77 N 8 13 30.38 1029 10 16 0.00 0.00
6:58 am 06:58 Cloudy 41 4.9 33 0.8 75 75 NNE 9 15 30.41 1030 10 16 0.00 0.00
7:58 am 07:58 Cloudy 41 5 34 1 76 76 NNE 12 19 30.39 1029 10 16 0.00 0.00
8:58 am 08:58 Cloudy 41 5 33 0.5 73 73 NNE 9 15 30.40 1029 10 16 0.00 0.00
9:58 am 09:58 Cloudy 43 6 34 1 71 71 NE 9 15 30.40 1030 10 16 0.00 0.00
10:58 am 10:58 Cloudy 43 6.1 34 1.3 72 72 VRB 7 11 30.40 1029 10 16 0.00 0.00
11:38 am 11:38 Cloudy 45 7 36 2 71 71 N 8 13 30.42 1030 10 16 0.00 0.00
11:58 am 11:58 Cloudy 44 6.8 35 1.7 70 70 NNE 8 13 30.41 1030 10 16 0.00 0.00
12:58 pm 12:58 Mostly Cloudy 48 8.7 37 2.6 66 66 VRB 5 7 30.37 1029 10 16 0.00 0.00
1:04 pm 13:04 Mostly Cloudy 48 9 37 3 66 66 VRB 5 7 30.36 1028 10 16 0.00 0.00
1:58 pm 13:58 Partly Cloudy 51 10.5 38 3.1 60 60 NNE 8 13 30.33 1027 10 16 0.00 0.00
2:58 pm 14:58 Partly Cloudy 52 11.2 37 2.9 57 57 NNE 8 13 30.28 1026 10 16 0.00 0.00
3:58 pm 15:58 Partly Cloudy 53 11.9 38 3.1 55 55 N 8 13 30.31 1027 10 16 0.00 0.00
4:58 pm 16:58 Mostly Sunny 54 12.4 39 3.8 56 56 VRB 5 7 30.29 1026 10 16 0.00 0.00
5:58 pm 17:58 Mostly Cloudy 55 12.7 39 3.8 55 55 VRB 6 9 30.27 1025 10 16 0.00 0.00
6:58 pm 18:58 Partly Cloudy 54 12.2 38 3.6 56 56 N 7 11 30.22 1024 10 16 0.00 0.00
7:58 pm 19:58 Mostly Cloudy 54 12 39 3.9 58 58 NNE 9 15 30.21 1023 10 16 0.00 0.00
8:39 pm 20:39 Partly Cloudy with Light Rain 54 12 39 4 58 58 NE 12 19 30.18 1022 10 16 0.00 0.00
8:49 pm 20:49 Mostly Cloudy 52 11 39 4 62 62 NE 10 17 30.18 1022 10 16 0.00 0.00
8:58 pm 20:58 Mostly Cloudy 53 11.4 39 4 61 61 ENE 10 17 30.19 1023 10 16 0.00 0.03
9:58 pm 21:58 Mostly Cloudy 52 11 40 4.3 64 64 ENE 9 15 30.22 1023 10 16 0.00 0.00
10:58 pm 22:58 Cloudy 51 10.8 40 4.6 66 66 NE 12 19 30.20 1023 10 16 0.00 0.00
11:40 pm 23:40 Cloudy with Light Rain 52 11 41 5 67 67 NE 9 15 30.18 1022 10 16 0.00 0.00
11:58 pm 23:58 Cloudy with Light Rain 50 10.1 41 5.2 72 72 NE 10 17 30.19 1022 10 16 0.00 0.03

Powered by AerisWeather